Ponca City, OK

1:10 PM CST on February 22, 2017 (GMT -0600)
Ponca City Municipal

Weather History for KPNC - April, 2014

Change the Weather History Date:

Wednesday, April 2, 2014

  Actual Average Record
Temperature  
Mean Temperature 68 °F -  
Max Temperature 87 °F 69 °F 90 °F (1976)
Min Temperature 50 °F 41 °F 25 °F (1975)
Cooling Degree Days 4    
Growing Degree Days 18 (Base 50)    
Moisture  
Dew Point 53 °F    
Average Humidity 60    
Maximum Humidity 78    
Minimum Humidity 35    
Precipitation  
Precipitation 0.00 in - - ()
Sea Level Pressure  
Sea Level Pressure 29.67 in    
Wind  
Wind Speed 11 mph (SSE)    
Max Wind Speed 15 mph    
Max Gust Speed 29 mph    
Visibility 10 miles    
Events      
Averages and records for this station are not official NWS values.
T = Trace of Precipitation, MM = Missing Value Source: NWS Daily Summary

Daily Weather History Graph

Daily Weather History Graph

Search for Another Location

Airport or City:

Trip Planner

Search our weather history database for the weather conditions in past years. The results will help you decide how hot, cold, wet, or windy it might be!

Date:

Astronomy

Apr. 02, 2014 Rise Set
Actual Time 7:12 AM CDT 7:51 PM CDT
Civil Twilight 6:46 AM CDT 8:17 PM CDT
Nautical Twilight 6:15 AM CDT 8:48 PM CDT
Astronomical Twilight 5:44 AM CDT 9:20 PM CDT
Moon 9:02 AM CDT (4/2) 11:11 PM CDT (4/2)
Length of Visible Light 13h 31m
Length of Day
12h 38m
Waxing Crescent, 10% of the Moon is Illuminated
Apr 2
Waxing Crescent
Apr 7
First Quarter
Apr 15
Full
Apr 22
Last Quarter
Apr 29
New

Hourly Weather History & Observations

Time (CDT) Temp. Heat Index Dew Point Humidity Pressure Visibility Wind Dir Wind Speed Gust Speed Precip Events Conditions
12:53 AM 51.1 °F - 39.9 °F 66% 29.84 in 8.0 mi ENE 12.7 mph - N/A   Mostly Cloudy
1:53 AM 50.0 °F - 39.0 °F 66% 29.81 in 10.0 mi East 10.4 mph - N/A   Clear
2:53 AM 50.0 °F - 37.9 °F 63% 29.80 in 10.0 mi ENE 8.1 mph - N/A   Scattered Clouds
3:53 AM 51.1 °F - 37.9 °F 61% 29.77 in 10.0 mi East 8.1 mph - N/A   Overcast
4:53 AM 51.1 °F - 39.0 °F 63% 29.75 in 10.0 mi East 9.2 mph - N/A   Mostly Cloudy
5:10 AM 51.8 °F - 39.2 °F 62% 29.75 in 10.0 mi East 8.1 mph - N/A   Overcast
5:53 AM 54.0 °F - 42.1 °F 64% 29.73 in 10.0 mi East 11.5 mph - N/A   Overcast
6:12 AM 55.4 °F - 44.6 °F 67% 29.73 in 10.0 mi ESE 11.5 mph - N/A   Overcast
7:53 AM 59.0 °F - 51.1 °F 75% 29.72 in 10.0 mi SE 12.7 mph - N/A   Overcast
8:53 AM 61.0 °F - 54.0 °F 78% 29.73 in 10.0 mi SE 12.7 mph - N/A   Overcast
9:53 AM 66.0 °F - 57.9 °F 75% 29.72 in 10.0 mi SSE 9.2 mph - N/A   Overcast
10:02 AM 66.2 °F - 57.2 °F 73% 29.73 in 10.0 mi South 8.1 mph - N/A   Overcast
10:53 AM 75.0 °F - 62.1 °F 64% 29.70 in 10.0 mi SSW 10.4 mph - N/A   Overcast
11:53 AM 75.9 °F - 61.0 °F 60% 29.70 in 10.0 mi WSW 9.2 mph - N/A   Partly Cloudy
12:53 PM 80.1 °F 81.1 °F 61.0 °F 52% 29.68 in 10.0 mi WNW 8.1 mph - N/A   Partly Cloudy
1:53 PM 81.0 °F 81.7 °F 61.0 °F 50% 29.65 in 10.0 mi Calm Calm - N/A   Clear
2:53 PM 84.0 °F 83.8 °F 59.0 °F 43% 29.62 in 10.0 mi WNW 5.8 mph - N/A   Partly Cloudy
3:53 PM 87.1 °F 85.7 °F 55.9 °F 35% 29.59 in 10.0 mi South 9.2 mph 16.1 mph N/A   Scattered Clouds
4:53 PM 86.0 °F 84.5 °F 55.4 °F 35% 29.60 in 10.0 mi South 13.8 mph 19.6 mph N/A   Partly Cloudy
5:53 PM 84.0 °F 83.3 °F 57.0 °F 40% 29.57 in 10.0 mi South 15.0 mph 19.6 mph N/A   Clear
6:53 PM 82.0 °F 82.4 °F 60.1 °F 47% 29.56 in 10.0 mi South 12.7 mph 19.6 mph N/A   Mostly Cloudy
7:53 PM 79.0 °F - 61.0 °F 54% 29.54 in 10.0 mi South 12.7 mph 23.0 mph N/A   Clear
8:53 PM 75.9 °F - 61.0 °F 60% 29.55 in 10.0 mi SSE 15.0 mph 23.0 mph N/A   Clear
9:53 PM 75.0 °F - 62.1 °F 64% 29.54 in 10.0 mi South 15.0 mph 28.8 mph N/A   Clear
10:53 PM 73.4 °F - 62.6 °F 69% 29.59 in 10.0 mi South 11.5 mph 19.6 mph N/A   Clear
11:53 PM 73.0 °F - 63.0 °F 71% 29.55 in 10.0 mi South 13.8 mph 23.0 mph N/A   Clear